Location: Arrien
(43.3167°N, 0.1500°W)
Time: 23:26:58
(UTC+00:00)

Cosmos 2366 rocket - Pass Details

Date: 15 October 2021
Orbit: 956 x 996 km, 82.9° (Epoch: 04 December)

Event Time Altitude Azimuth Distance (km) Brightness Sun altitude
Rises 17:54:15 0° 188° (S) 3,622 7.2 -7.5°
Reaches altitude 10° 17:56:44 10° 189° (S) 2,683 6.5 -7.9°
Maximum altitude 18:02:53 83° 278° (W) 976 4.1 -9.0°
Drops below altitude 10° 18:09:08 10° 7° (N) 2,724 6.3 -10.2°
Sets 18:11:40 0° 8° (N) 3,681 6.9 -10.6°
